www.srh.weather.gov   
NOAA logo - Click to go to the NOAA homepage   NWS logo
Hourly Weather Roundup
Enter Your "City, ST" or zip code   
Current Version              Previous Version:    01  02  03  04  05  06  07  08  09  10  11  12  13  14  15  16  17  18  19  20  21  22  23  24  25  26  27  28  29  30  
   31  32  33  34  35  36  37  38  39  40  41  42  43  44  45  46  47  48  49  50  51  52  53  54  55  56  57  58  59  60  
[Printable]
396
NZUS43 KILX 182010
HWRILX

AREA WEATHER ROUNDUP
NATIONAL WEATHER SERVICE, LINCOLN IL
200 PM CST THU DEC 18 2014


CITY           SKY/WX    TMP DP  RH WIND       PRES   REMARKS
BLOOMINGTON    PTSUNNY   28  21  74 NW5       30.23F WCI  23
CHAMPAIGN      CLOUDY    28  21  75 W5        30.24R WCI  23
DECATUR        CLOUDY    29  23  78 S3        30.24F HAZE
FLORA          MOSUNNY   31  25  77 CALM      30.25S
GALESBURG      MOSUNNY   27  20  73 N3        30.24S
JACKSONVILLE   RAIN      31  26  81 CALM      30.24F
LACON          MOSUNNY   28  19  68 CALM      30.25S
LAWRENCEVILLE  CLOUDY    31  23  72 CALM      30.25F
LITCHFIELD     CLOUDY    30  24  77 CALM      30.23S
$$


CITY           SKY/WX    TMP DP  RH WIND       PRES   REMARKS
LINCOLN        CLOUDY    30  24  79 CALM      30.26S
MACOMB         CLOUDY    27  21  79 CALM      30.27F
MATTOON        CLOUDY    30  21  69 NW6       30.22F WCI  24
MT CARMEL AP   CLOUDY    34  25  69 CALM      30.24F
OLNEY-NOBLE AP CLOUDY    32  23  69 CALM      30.24F
PARIS          CLOUDY    29  23  78 CALM      30.24S
PEORIA         CLOUDY    29  19  66 NW3       30.25F
PONTIAC        PTSUNNY   28  22  79 NW5       30.24F WCI  22
RANTOUL        CLOUDY    29  24  81 NW3       30.23F
ROBINSON       CLOUDY    31  24  74 NE3       30.25F
SPRINGFIELD    CLOUDY    31  24  75 NW3       30.24F
TAYLORVILLE    CLOUDY    30  23  74 CALM      30.23F
$$

...REGIONAL REPORTS...


CITY           SKY/WX    TMP DP  RH WIND       PRES   REMARKS
CHICAGO O`HARE CLOUDY    28  18  66 NW3       30.21F
KANKAKEE       CLOUDY    28  21  77 W5        30.24F WCI  22
MOLINE         PTSUNNY   30  17  58 NW5       30.24F WCI  25
MOUNT VERNON   CLOUDY    34  23  64 CALM      30.23F
PITTSFIELD     LGT RAIN  30  26  84 CALM      30.24F
QUINCY         CLOUDY    29  24  82 NE5       30.23F WCI  24
ROCKFORD       CLOUDY    27  16  63 N5        30.25F WCI  22
$$


CITY           SKY/WX    TMP DP  RH WIND       PRES   REMARKS
BURLINGTON     CLOUDY    28  20  71 CALM      30.24F
CEDAR RAPIDS   CLOUDY    25  18  74 NW6       30.23F WCI  18
DES MOINES     FLURRIES  31  20  63 CALM      30.23F
KIRKSVILLE     CLOUDY    30  26  85 E3        30.22S
OTTUMWA        CLOUDY    27  21  78 NE3       30.23F
ST LOUIS       CLOUDY    36  27  69 CALM      30.23F
$$


CITY           SKY/WX    TMP DP  RH WIND       PRES   REMARKS
TERRE HAUTE    CLOUDY    29  21  72 CALM      30.23F
EVANSVILLE     CLOUDY    34  25  69 CALM      30.24F
INDIANAPOLIS   CLOUDY    27  20  75 NW3       30.21F
LAFAYETTE      CLOUDY    27  20  75 N6        30.23F WCI  20
MADISON        FLURRIES  27  21  78 N5        30.22F WCI  22
MILWAUKEE      CLOUDY    29  22  75 NW8       30.21F WCI  21
$$





National Weather Service
Disclaimer
Last Modified: August 31, 2005
Privacy Policy